Location: Orinda
(37.8771°N, 122.1797°W)
Time: 18:17:25
(UTC+00:00)

Cosmos 1892 Rocket - Pass Details

Date: 21 October 2019
Orbit: 605 x 634 km, 82.5° (Epoch: 12 November)

Event Time Altitude Azimuth Distance (km) Brightness Sun altitude
Rises 12:26:31 0° 175° (S) 2,900 7.0 -23.6°
Reaches altitude 10° 12:28:46 10° 171° (S) 1,994 6.2 -23.2°
Maximum altitude 12:33:05 55° 94° (E) 749 4.2 -22.4°
Drops below altitude 10° 12:37:24 10° 17° (NNE) 1,991 6.4 -21.5°
Sets 12:39:39 0° 13° (NNE) 2,896 7.2 -21.1°
